Hourly Data Report for May 05, 2004

TORONTO CITY
ONTARIO

43°40'00.000" N
79°24'00.000" W
112.50 m
6158355
71508
XTO

Download Data

Hourly Data (May 2004)
Hourly Data Report for May 5, 2004
TIME
LST
Temp Definition
°C
Dew Point Definition
°C
Rel Hum Definition
%
Precip. Amount Definition
mm

Wind Dir Definition
10's deg

Wind Spd Definition
km/h
Visibility Definition
km
Stn Press Definition
kPa
Hmdx Definition


Wind Chill Definition


Weather Definition


00:00 7.6 5.4 86   LegendMM LegendMM LegendMM 99.71     LegendNANA
01:00 8.0 5.5 84   LegendMM LegendMM LegendMM 99.59     LegendNANA
02:00 8.2 5.3 82   LegendMM LegendMM LegendMM 99.54     LegendNANA
03:00 7.7 6.2 90   LegendMM LegendMM LegendMM 99.50     LegendNANA
04:00 8.3 7.6 95   LegendMM LegendMM LegendMM 99.45     LegendNANA
05:00 8.6 7.8 95   LegendMM LegendMM LegendMM 99.43     LegendNANA
06:00 8.7 8.1 96   LegendMM LegendMM LegendMM 99.48     LegendNANA
07:00 10.0 9.0 93   LegendMM LegendMM LegendMM 99.51     LegendNANA
08:00 12.1 9.0 81   LegendMM LegendMM LegendMM 99.55     LegendNANA
09:00 12.7 7.1 69   LegendMM LegendMM LegendMM 99.61     LegendNANA
10:00 12.7 5.2 60   LegendMM LegendMM LegendMM 99.67     LegendNANA
11:00 12.3 2.8 52   LegendMM LegendMM LegendMM 99.73     LegendNANA
12:00 12.4 2.9 52   LegendMM LegendMM LegendMM 99.81     LegendNANA
13:00 11.2 3.5 59   LegendMM LegendMM LegendMM 99.92     LegendNANA
14:00 11.2 3.0 57   LegendMM LegendMM LegendMM 99.99     LegendNANA
15:00 11.9 3.3 56   LegendMM LegendMM LegendMM 100.03     LegendNANA
16:00 11.7 4.3 60   LegendMM LegendMM LegendMM 100.13     LegendNANA
17:00 11.1 3.8 61   LegendMM LegendMM LegendMM 100.18     LegendNANA
18:00 10.5 4.8 68   LegendMM LegendMM LegendMM 100.24     LegendNANA
19:00 9.7 4.6 70   LegendMM LegendMM LegendMM 100.29     LegendNANA
20:00 9.2 4.4 72   LegendMM LegendMM LegendMM 100.36     LegendNANA
21:00 8.6 4.4 75   LegendMM LegendMM LegendMM 100.42     LegendNANA
22:00 8.1 4.7 79   LegendMM LegendMM LegendMM 100.42     LegendNANA
23:00 7.9 4.7 80   LegendMM LegendMM LegendMM 100.38     LegendNANA

Notes on Data Quality.

Legend

  • E = Estimated
  • M = Missing
  • NA = Not Available*
  • [empty] = Indicates an unobserved value
Date modified: